Weather History for Lone Rock, WI

Change the Weather History Date:

Tuesday, January 7, 2014

  Actual Average Record
Temperature  
Mean Temperature -8 °F -  
Max Temperature 3 °F 26 °F 48 °F (2003)
Min Temperature -18 °F 12 °F -20 °F (1999)
Degree Days  
Heating Degree Days 72    
Moisture  
Dew Point -18 °F    
Average Humidity 66    
Maximum Humidity 78    
Minimum Humidity 48    
Precipitation  
Precipitation 0.00 in - - ()
Sea Level Pressure  
Sea Level Pressure 30.27 in    
Wind  
Wind Speed 5 mph (West)    
Max Wind Speed 10 mph    
Max Gust Speed -    
Visibility 10 miles    
Events      
Averages and records for this station are not official NWS values.
T = Trace of Precipitation, MM = Missing Value Source: NWS Daily Summary

Daily Weather History Graph

Daily Weather History Graph

Search for Another Location

Airport:

Trip Planner

Search our weather history database for the weather conditions in past years. The results will help you decide how hot, cold, wet, or windy it might be!

Date:

Astronomy

Jan. 07, 2014 Rise Set
Actual Time 7:32 AM CST 4:41 PM CST
Civil Twilight 7:00 AM CST 5:14 PM CST
Nautical Twilight 6:24 AM CST 5:49 PM CST
Astronomical Twilight 5:50 AM CST 6:24 PM CST
Moon 11:08 AM CST (1/7) No Moon Set
Length of Visible Light 10h 13m
Length of Day
9h 09m
Waxing Crescent, 46% of the Moon is Illuminated
Jan 7
Waxing Crescent
Jan 7
First Quarter
Jan 15
Full
Jan 23
Last Quarter
Jan 30
New

Hourly Weather History & Observations

Time (CST) Temp. Windchill Dew Point Humidity Pressure Visibility Wind Dir Wind Speed Gust Speed Precip Events Conditions
12:56 AM -15.0 °F -29.3 °F -22.0 °F 71% 30.24 in 10.0 mi West 5.8 mph - N/A   Clear
1:56 AM -14.1 °F -32.6 °F -22.0 °F 68% 30.25 in 10.0 mi West 9.2 mph - N/A   Clear
2:56 AM -13.0 °F -32.4 °F -20.9 °F 68% 30.24 in 10.0 mi West 10.4 mph - N/A   Clear
3:56 AM -16.1 °F -28.6 °F -23.1 °F 71% 30.25 in 10.0 mi West 4.6 mph - N/A   Clear
4:56 AM -15.0 °F -32.4 °F -22.0 °F 71% 30.26 in 10.0 mi West 8.1 mph - N/A   Clear
5:56 AM -18.0 °F - -25.1 °F 70% 30.24 in 10.0 mi Calm Calm - N/A   Clear
6:56 AM -17.0 °F -33.4 °F -23.1 °F 74% 30.26 in 10.0 mi West 6.9 mph - N/A   Clear
7:56 AM -18.0 °F - -23.1 °F 78% 30.27 in 10.0 mi Calm Calm - N/A   Clear
8:56 AM -11.9 °F - -18.9 °F 71% 30.30 in 10.0 mi Calm Calm - N/A   Clear
9:56 AM -8.0 °F -19.2 °F -16.1 °F 68% 30.30 in 10.0 mi West 4.6 mph - N/A   Mostly Cloudy
10:56 AM -6.0 °F -18.6 °F -15.0 °F 65% 30.28 in 10.0 mi WSW 5.8 mph - N/A   Partly Cloudy
11:56 AM -2.9 °F -13.3 °F -14.1 °F 59% 30.27 in 10.0 mi West 4.6 mph - N/A   Clear
12:56 PM 1.0 °F -12.9 °F -11.9 °F 55% 30.24 in 10.0 mi West 8.1 mph - N/A   Clear
1:56 PM 1.9 °F -10.6 °F -11.9 °F 52% 30.22 in 10.0 mi West 6.9 mph - N/A   Clear
2:56 PM 1.9 °F -5.6 °F -11.0 °F 55% 30.22 in 10.0 mi SSW 3.5 mph - N/A   Clear
3:56 PM 3.9 °F - -11.9 °F 48% 30.23 in 10.0 mi Calm Calm - N/A   Clear
4:56 PM -0.9 °F -8.9 °F -13.0 °F 57% 30.25 in 10.0 mi South 3.5 mph - N/A   Clear
5:56 PM -7.1 °F - -16.1 °F 65% 30.28 in 10.0 mi Calm Calm - N/A   Clear
6:56 PM -8.0 °F - -16.1 °F 68% 30.29 in 10.0 mi Calm Calm - N/A   Clear
7:56 PM -7.1 °F - -15.0 °F 68% 30.31 in 10.0 mi Calm Calm - N/A   Clear
8:56 PM -9.0 °F - -16.1 °F 71% 30.32 in 10.0 mi Calm Calm - N/A   Clear
9:56 PM -11.9 °F - -18.9 °F 71% 30.33 in 10.0 mi Calm Calm - N/A   Clear
10:56 PM -13.0 °F - -18.9 °F 75% 30.33 in 10.0 mi Calm Calm - N/A   Clear
11:56 PM -17.0 °F - -23.1 °F 74% 30.32 in 10.0 mi Calm Calm - N/A   Clear